Terminal Aerodrome Forecast
Issued by NWS Charleston, WV

Current Version | Previous Version | Graphics & Text | Print | Product List | Glossary On
Versions: 1 2 3 4 5 6 7 8 9 10 11 12 13 14 15 16 17 18 19 20 21 22 23 24 25 26
000
FTUS41 KRLX 260259 AAA
TAFPKB
TAF AMD
KPKB 260259Z 2603/2624 20004KT P6SM SCT060
     FM261200 18004KT 5SM -SHRA BR BKN040
     FM261600 19006KT P6SM BKN035
     FM262200 19007KT P6SM VCTS BKN030CB=

USA.gov is the U.S. government's official web portal to all federal, state and local government web resources and services.